Location: Coupvray
(48.8929°N, 2.7967°E)
Time: 10:01:44
(UTC+00:00)

Altair 2 - Pass Details

Date: 21 January 2021
Orbit: 837 x 949 km, 90.2° (Epoch: 26 February)

Event Time Altitude Azimuth Distance (km) Brightness Sun altitude
Rises 19:24:18 0° 214° (SW) 3,391 11.2 -28.4°
Reaches altitude 10° 19:27:08 10° 228° (SW) 2,454 10.6 -28.9°
Maximum altitude 19:31:31 24° 281° (WNW) 1,664 9.9 -29.6°
Drops below altitude 10° 19:35:57 10° 335° (NNW) 2,466 10.4 -30.3°
Sets 19:38:49 0° 349° (N) 3,412 11.0 -30.8°
